Location: Alessandria
(44.9000°N, 8.6170°E)
Time: 18:05:06
(UTC+02:00)

ISS - Pass Details

Date: 11 May 2021
Orbit: 417 x 422 km, 51.6° (Epoch: 18 June)

Event Time Altitude Azimuth Distance (km) Brightness Sun altitude
Rises 05:10:58 0° 300° (WNW) 2,376 -0.2 -8.5°
Reaches altitude 10° 05:13:06 10° 305° (NW) 1,510 -1.1 -8.2°
Maximum altitude 05:16:26 56° 25° (NNE) 507 -3.0 -7.7°
Drops below altitude 10° 05:19:46 10° 105° (ESE) 1,506 -0.3 -7.2°
Sets 05:21:54 0° 109° (ESE) 2,369 0.6 -6.9°
